Location: Le Rocchette
(44.3500°N, 7.8333°E)
Time: 14:43:00
(UTC+00:00)

Cosmos 158 Rocket - Pass Details

Date: 17 November 2019
Orbit: 699 x 793 km, 74.0° (Epoch: 04 December)

Event Time Altitude Azimuth Distance (km) Brightness Sun altitude
Exits shadow 04:34:12 39° 306° (NW) 1,055 4.3 -20.0°
Maximum altitude 04:35:39 54° 255° (WSW) 860 3.9 -19.7°
Drops below altitude 10° 04:40:22 10° 178° (S) 2,158 6.4 -18.9°
Sets 04:42:42 0° 174° (S) 3,068 7.3 -18.5°
